Theta_e
309 308 308 308 311 312 313 314 316 316 315 316 317 317 316 315 316 314 317 318 320 321 322 323 322 340 346 348 349 345 338 334 334 333 330 329 327 327 327 327 326 327 327 327
313 310 309 309 310 311 312 313 313 313 313 314 315 316 315 315 315 315 316 317 319 320 321 323 321 338 345 346 347 348 347 344 338 333 331 329 327 327 326 326 327 329 333 334
313 312 313 312 311 311 311 312 312 313 314 313 314 315 314 314 314 315 316 317 318 319 321 322 323 328 344 346 346 346 348 348 346 337 332 331 329 329 331 336 339 335 341 343
310 313 314 314 316 314 314 312 313 315 318 316 313 316 313 312 312 312 313 316 317 319 320 320 322 321 341 347 346 346 346 348 348 345 338 334 336 335 333 337 341 338 343 346
308 308 309 313 314 315 315 315 315 317 320 321 319 317 316 311 313 312 311 314 317 318 319 319 321 321 333 343 345 346 346 346 347 346 343 340 339 338 337 339 342 342 342 346
306 307 311 312 313 315 315 317 317 318 318 323 319 319 317 316 313 313 312 315 317 318 319 319 320 322 321 325 325 329 337 342 346 346 342 342 344 342 341 342 343 344 343 344
306 307 306 310 313 314 312 317 316 314 316 318 317 319 319 316 314 314 315 314 317 317 318 320 320 320 320 320 321 321 328 332 337 346 345 345 345 344 343 344 343 345 345 346
308 308 307 309 312 313 313 314 315 310 312 317 318 322 319 317 317 317 317 317 317 318 318 317 317 318 320 322 321 320 321 325 330 335 340 344 345 344 345 345 342 346 347 347
308 309 308 309 311 311 313 313 314 315 316 315 316 316 315 315 316 314 314 316 317 317 318 317 318 319 320 320 320 320 322 325 325 327 330 338 343 344 345 345 344 347 348 348
309 310 309 310 311 313 315 314 317 314 318 317 315 316 315 314 314 315 315 316 317 317 318 318 318 319 320 321 320 320 320 322 322 324 326 329 335 343 346 344 345 346 347 346
308 309 310 310 313 313 315 317 316 314 313 316 316 315 312 314 313 318 319 320 321 321 322 322 321 319 319 319 318 319 320 321 322 327 330 334 336 343 346 345 345 347 346 344
309 308 308 314 312 314 315 316 314 315 314 316 317 316 317 317 320 320 318 319 318 318 320 321 323 322 321 321 319 318 320 324 325 325 331 339 341 346 347 345 344 344 340 333
308 310 310 311 313 314 315 315 317 315 317 317 317 315 314 317 317 317 318 318 318 319 318 320 325 328 323 322 322 319 320 324 328 334 337 342 346 347 347 344 342 342 339 340
308 309 312 310 310 310 312 313 315 312 313 312 315 315 315 315 315 314 316 319 321 321 322 319 322 329 331 324 322 320 322 332 338 340 342 346 344 347 344 342 342 340 341 341
308 312 311 310 311 311 311 312 312 312 312 313 312 312 312 313 313 314 319 321 321 323 322 320 321 326 331 332 324 321 332 340 345 348 346 343 343 343 341 342 340 340 340 337
304 303 305 308 309 310 311 311 311 312 312 312 312 312 312 312 312 313 316 322 323 322 325 321 322 333 333 331 322 326 337 338 348 348 344 343 344 340 339 339 339 338 338 334
305 307 306 308 310 310 313 314 313 314 312 315 316 313 312 313 321 322 320 321 321 324 326 328 337 332 324 329 333 336 340 337 343 343 343 343 341 338 337 338 338 338 333 332
306 307 307 309 309 313 316 313 313 313 315 318 319 319 318 320 319 316 316 320 321 321 322 327 335 334 335 338 330 337 339 340 338 341 341 340 338 338 338 338 334 332 330 329
305 308 308 310 312 313 316 311 313 312 314 316 316 321 322 320 318 313 311 312 316 315 318 319 322 333 334 334 332 333 334 335 333 336 338 338 337 337 334 330 329 328 328 321
309 305 309 313 314 313 313 310 308 311 319 313 313 315 322 320 317 312 309 309 309 314 317 314 316 323 326 324 329 330 325 326 324 326 332 335 333 333 329 328 322 319 316 309
312 310 308 309 312 313 310 307 308 321 320 311 312 317 314 313 312 309 309 309 308 308 310 311 313 315 314 317 325 323 316 315 313 317 325 325 325 326 322 319 312 310 307 307
312 312 314 312 311 311 307 306 312 312 310 311 313 313 311 310 308 306 307 308 308 308 308 308 310 310 310 314 321 314 312 313 316 321 323 321 318 316 311 308 306 306 307 308
312 309 309 310 310 308 306 308 310 311 310 311 313 311 309 307 306 306 305 306 306 307 308 308 309 309 308 310 313 316 310 311 313 315 313 311 309 307 306 306 307 308 308 308
309 308 310 310 309 309 309 310 313 316 314 312 311 310 309 306 306 305 305 305 306 306 306 307 308 307 307 306 307 306 307 307 307 306 306 306 306 307 307 308 308 308 308 307
308 308 310 310 309 309 307 309 312 312 312 310 309 308 308 307 305 305 305 306 306 306 306 307 306 306 305 305 304 305 304 305 306 306 306 306 306 307 307 308 307 307 306 305
307 309 308 308 308 308 306 307 309 310 310 309 309 308 307 306 305 305 305 305 306 305 306 306 306 305 305 306 306 305 306 304 305 306 306 307 307 307 307 306 305 304 304 303
Wind_Speed
6 3 6 11 13 12 9 7 10 8 7 8 16 16 11 12 16 14 18 21 24 25 27 21 27 39 42 42 45 45 45 47 47 46 43 39 37 35 33 32 28 26 25 24
1 6 9 15 10 10 9 11 13 7 9 8 14 22 17 19 17 20 22 28 27 31 30 26 26 34 41 43 43 46 45 44 44 44 42 39 37 34 32 29 28 26 25 24
4 7 13 11 9 11 11 14 11 12 5 9 10 19 15 14 15 21 26 29 32 30 31 31 27 35 40 45 45 43 46 46 42 41 40 40 36 34 33 31 29 29 26 24
8 5 3 9 10 10 13 9 13 13 6 5 4 7 5 7 12 9 18 28 32 31 30 26 30 34 42 45 47 45 46 48 45 43 42 42 41 40 40 35 29 29 29 26
9 14 14 11 5 3 9 6 10 10 7 3 4 4 5 7 10 10 10 24 30 33 31 29 27 32 42 39 41 46 46 47 47 47 47 45 44 42 36 32 31 31 30 28
13 13 10 10 12 8 4 2 3 1 3 7 15 10 5 8 9 7 7 19 20 27 28 25 23 30 38 40 38 41 43 45 46 50 51 48 45 41 38 35 31 31 29 30
16 9 7 18 9 10 2 3 2 2 2 8 4 7 18 6 9 12 12 15 25 18 16 15 17 22 33 44 44 44 46 44 44 47 50 49 47 42 39 36 31 33 33 32
4 8 2 8 14 3 5 9 4 6 3 4 3 6 13 16 18 14 25 26 21 21 17 15 19 21 27 35 40 49 50 49 47 46 46 47 48 45 40 37 32 29 32 30
5 6 7 10 5 8 5 6 12 5 2 2 4 8 14 12 16 6 10 20 27 28 28 16 14 18 21 28 40 48 53 51 48 47 46 48 49 47 42 37 29 25 27 26
3 11 6 4 1 11 11 5 4 2 4 4 5 6 10 4 4 6 6 7 13 14 18 23 17 16 16 20 31 42 52 52 48 48 47 48 48 48 44 36 29 24 25 23
6 6 8 3 4 4 2 6 2 3 3 4 2 6 5 15 12 4 6 10 9 11 14 16 18 19 18 16 24 34 46 51 51 53 53 52 49 47 41 33 26 23 21 28
2 4 6 6 10 9 7 3 5 4 4 4 3 9 3 4 3 4 6 12 18 17 18 16 16 18 21 21 19 27 36 41 43 45 48 47 48 41 35 31 24 17 15 21
3 3 4 7 1 5 2 2 0 2 1 6 3 5 2 5 8 11 10 20 25 23 24 20 18 18 21 23 22 25 30 35 38 41 44 42 38 32 32 29 23 20 19 24
14 4 7 2 3 2 4 6 3 4 2 3 9 14 15 11 9 14 17 20 20 27 28 25 21 19 19 25 26 25 30 32 37 38 37 35 38 34 32 28 24 23 24 29
3 4 5 9 11 10 11 12 11 9 7 6 6 12 17 8 11 14 19 23 26 29 31 26 24 22 19 25 27 27 31 33 37 39 37 37 36 36 32 30 26 28 28 30
3 4 5 6 8 7 9 10 11 13 14 16 19 26 20 20 23 15 18 18 20 23 24 25 22 21 20 27 31 32 35 36 40 42 41 37 43 38 34 30 30 29 26 26
4 3 4 5 7 12 6 2 4 8 10 10 13 21 14 15 6 5 10 15 14 13 17 19 16 15 20 30 35 35 40 42 45 47 43 44 42 39 35 33 32 29 28 24
5 2 2 5 6 2 2 6 9 13 14 9 10 14 6 3 7 15 15 12 9 5 6 10 23 26 33 41 38 36 44 44 46 45 48 48 45 42 40 37 35 31 27 21
10 4 3 3 2 7 1 5 7 7 8 11 12 5 2 5 2 16 20 14 10 10 22 19 22 34 33 34 37 41 41 42 43 50 52 49 46 44 43 40 35 31 26 22
2 9 3 2 4 4 4 14 27 8 5 14 15 14 6 5 3 5 17 20 25 20 19 28 32 36 38 38 41 40 41 43 47 51 54 52 50 46 43 39 35 30 24 21
4 1 6 6 4 5 9 22 24 3 5 19 22 9 16 7 8 15 23 24 32 34 32 32 37 42 38 40 43 43 40 40 41 50 54 50 44 42 38 35 31 28 24 21
4 5 3 3 3 5 23 20 5 8 24 20 15 17 25 23 24 26 29 32 33 37 37 34 44 44 40 40 41 44 42 40 45 47 45 41 38 35 33 31 28 24 22 20
2 3 3 2 2 10 26 24 35 30 21 9 17 20 28 27 27 29 32 36 38 40 39 39 43 41 41 38 43 48 41 41 43 44 41 38 35 31 27 25 24 24 20 18
2 5 3 5 3 9 26 33 28 23 24 25 24 26 28 31 30 32 33 36 37 39 39 41 43 41 41 42 41 39 36 32 35 37 34 33 31 28 24 22 22 21 19 16
4 10 7 4 9 7 31 33 24 27 29 29 28 28 30 35 33 35 35 36 36 36 37 38 41 41 40 37 36 36 30 26 26 24 25 26 27 26 27 24 20 18 17 12
8 5 4 3 17 10 20 29 29 29 27 28 33 33 31 33 33 34 35 33 33 31 30 31 30 29 27 28 28 27 27 16 20 24 24 25 26 25 24 25 26 20 17 15
Wind_Direction
208 161 196 206 212 221 225 240 262 251 264 296 276 288 285 286 289 298 283 267 257 255 246 245 238 229 222 222 223 217 216 217 215 215 215 216 218 219 220 218 218 220 223 224
290 240 227 223 224 222 224 241 259 270 250 244 272 270 270 265 263 253 261 270 267 260 251 245 242 227 223 221 223 222 220 219 218 218 218 219 220 221 226 222 220 220 220 217
283 273 292 234 234 223 231 232 245 244 252 257 280 281 256 255 250 250 249 256 261 258 255 245 237 231 227 225 224 223 223 222 221 220 219 220 223 222 223 217 216 215 212 209
267 259 345 266 245 225 245 223 243 251 253 238 144 284 205 229 247 218 230 236 248 253 254 249 238 234 225 226 225 227 227 223 218 217 218 218 219 217 218 216 217 214 211 208
240 262 281 277 251 276 266 202 222 221 226 283 264 252 256 209 236 240 222 233 241 248 249 248 231 229 222 220 221 225 229 227 221 218 218 217 221 224 224 218 221 218 214 215
255 263 253 235 244 230 355 2 344 286 186 234 235 211 227 219 225 248 228 234 237 244 249 246 241 225 221 222 224 229 229 230 225 221 220 220 223 224 224 222 223 223 220 218
304 259 247 229 259 239 114 95 275 309 197 242 206 207 244 253 226 227 239 237 250 247 245 231 235 226 221 221 225 225 222 223 225 224 224 225 226 230 229 229 227 221 221 222
323 320 230 201 224 225 182 167 236 195 187 242 341 213 255 221 246 240 239 251 254 259 265 264 256 254 236 223 220 223 219 218 218 220 224 227 229 230 234 231 233 231 226 226
306 256 318 298 262 190 174 215 228 287 302 354 242 268 287 249 249 225 242 249 254 257 259 260 255 246 247 238 224 217 218 217 218 218 220 224 228 230 233 230 234 232 229 225
274 293 254 298 176 229 225 176 169 197 208 227 252 252 234 17 156 211 248 243 255 255 255 250 249 244 245 239 232 227 220 220 218 218 223 222 223 228 230 226 228 226 228 207
267 237 298 328 233 228 155 211 167 158 172 204 240 254 214 226 249 214 269 283 279 286 278 269 254 242 245 248 233 229 224 219 221 220 221 222 225 227 222 223 222 225 216 203
302 292 281 250 247 313 272 217 168 177 206 219 268 261 274 184 169 191 257 295 315 312 302 297 280 257 235 239 236 223 222 221 222 222 220 218 218 216 215 217 218 203 201 178
305 260 314 303 311 221 94 145 353 68 86 221 215 262 122 337 331 309 294 303 313 313 312 299 287 274 237 228 227 218 218 218 214 212 213 212 211 198 207 206 203 186 189 189
271 258 256 256 309 3 317 313 228 152 200 255 238 281 283 304 299 296 297 302 305 304 305 295 281 278 246 223 222 214 210 210 205 201 202 198 206 201 194 195 187 175 172 172
3 268 290 280 268 256 255 259 255 235 224 231 274 281 276 282 289 277 281 294 299 298 299 286 271 271 260 222 211 205 196 193 194 189 190 197 195 183 182 177 177 169 166 162
6 291 335 286 269 262 268 261 258 249 247 246 256 267 272 275 276 274 272 285 287 303 298 280 261 258 242 211 196 189 185 186 186 187 190 188 176 177 177 176 178 175 166 163
303 314 335 272 323 313 284 6 320 283 253 236 247 251 278 283 284 337 328 299 287 307 303 259 213 213 195 173 177 175 183 185 185 185 184 174 175 170 171 173 171 166 165 166
246 248 263 283 321 340 82 32 331 316 270 328 293 259 258 194 103 39 8 322 274 314 46 119 164 161 159 164 165 177 180 179 180 177 172 169 169 166 164 166 163 162 164 169
223 209 267 274 268 286 6 29 342 342 297 348 343 302 122 164 175 43 20 29 89 76 84 88 109 151 145 152 154 175 168 170 175 169 164 164 165 162 161 161 161 161 166 170
281 198 224 304 330 295 17 332 327 296 260 354 347 326 260 321 66 15 37 45 56 73 82 85 100 127 132 137 152 156 147 157 158 161 159 158 159 159 160 159 159 156 164 162
316 170 237 260 249 275 360 335 322 228 332 326 330 36 62 69 67 71 70 67 69 72 90 88 92 105 110 127 140 138 138 137 145 153 150 150 151 152 155 155 155 156 155 151
316 324 343 324 339 334 343 329 344 294 303 308 330 83 88 80 71 68 76 75 76 80 79 88 92 95 100 120 137 130 125 137 143 140 141 143 145 147 150 152 149 146 148 149
335 343 298 335 299 287 294 279 290 283 264 301 100 92 94 84 75 73 72 75 74 77 83 86 93 96 95 108 123 128 126 133 135 137 138 140 142 142 145 146 143 143 145 146
289 316 308 316 285 320 347 355 19 65 88 105 106 109 103 92 87 80 78 78 79 81 79 84 84 85 87 91 97 99 109 119 125 126 130 132 134 136 138 139 140 139 143 139
308 311 317 302 344 347 5 11 43 68 93 99 98 99 102 103 90 89 86 85 84 84 84 86 87 87 88 88 90 93 99 96 111 119 130 137 134 137 136 132 135 137 128 124
341 338 1 2 9 12 9 27 57 72 78 89 99 94 91 95 95 97 94 93 90 86 86 85 88 88 90 91 93 93 91 108 122 139 137 136 137 139 145 148 145 141 139 135